Weather History for Enid, OK

Change the Weather History Date:

Monday, April 22, 2013

  Actual Average Record
Temperature  
Mean Temperature 60 °F -  
Max Temperature 75 °F 68 °F 91 °F (2009)
Min Temperature 44 °F 48 °F 44 °F (2004)
Degree Days  
Heating Degree Days 6    
Growing Degree Days 10 (Base 50)    
Moisture  
Dew Point 49 °F    
Average Humidity 79    
Maximum Humidity 93    
Minimum Humidity 53    
Precipitation  
Precipitation 0.06 in - - ()
Sea Level Pressure  
Sea Level Pressure 29.95 in    
Wind  
Wind Speed 9 mph (SSE)    
Max Wind Speed 26 mph    
Max Gust Speed 33 mph    
Visibility 10 miles    
Events Rain , Thunderstorm    
Averages and records for this station are not official NWS values.
T = Trace of Precipitation, MM = Missing Value Source: NWS Daily Summary

Daily Weather History Graph

Daily Weather History Graph

Search for Another Location

Airport:

Trip Planner

Search our weather history database for the weather conditions in past years. The results will help you decide how hot, cold, wet, or windy it might be!

Date:

Astronomy

Apr. 22, 2013 Rise Set
Actual Time 6:48 AM CDT 8:11 PM CDT
Civil Twilight 6:21 AM CDT 8:38 PM CDT
Nautical Twilight 5:48 AM CDT 9:11 PM CDT
Astronomical Twilight 5:15 AM CDT 9:44 PM CDT
Moon 5:06 PM CDT (4/22) 4:37 AM CDT (4/22)
Length of Visible Light 14h 17m
Length of Day
13h 23m
Waxing Gibbous, 88% of the Moon is Illuminated
Apr 22
Waxing Gibbous
Apr 25
Full
May 2
Last Quarter
May 9
New
May 17
First Quarter

Hourly Weather History & Observations

Time (CDT) Temp. Windchill Dew Point Humidity Pressure Visibility Wind Dir Wind Speed Gust Speed Precip Events Conditions
12:15 AM 51.8 °F - 46.4 °F 82% 30.06 in 10.0 mi SE 10.4 mph - N/A   Clear
12:35 AM 51.8 °F - 44.6 °F 76% 30.07 in 10.0 mi SSE 9.2 mph - N/A   Clear
12:55 AM 50.0 °F - 44.6 °F 82% 30.07 in 10.0 mi SSE 5.8 mph - N/A   Clear
1:15 AM 50.0 °F - 44.6 °F 82% 30.07 in 10.0 mi SSE 3.5 mph - N/A   Clear
1:35 AM 48.2 °F - 44.6 °F 87% 30.06 in 10.0 mi SSE 3.5 mph - N/A   Clear
1:55 AM 48.2 °F - 44.6 °F 87% 30.06 in 10.0 mi SE 3.5 mph - N/A   Clear
2:15 AM 46.4 °F 42.9 °F 44.6 °F 93% 30.06 in 10.0 mi SE 6.9 mph - N/A   Clear
2:35 AM 48.2 °F - 44.6 °F 87% 30.03 in 10.0 mi SE 9.2 mph - N/A   Clear
2:55 AM 48.2 °F - 44.6 °F 87% 30.04 in 10.0 mi SSE 8.1 mph - N/A   Clear
3:15 AM 46.4 °F 44.3 °F 42.8 °F 87% 30.04 in 10.0 mi South 4.6 mph - N/A   Clear
3:35 AM 46.4 °F 44.3 °F 42.8 °F 87% 30.04 in 10.0 mi SSE 4.6 mph - N/A   Clear
3:55 AM 46.4 °F - 42.8 °F 87% 30.04 in 10.0 mi Calm Calm - N/A   Clear
4:15 AM 44.6 °F 42.2 °F 42.8 °F 93% 30.03 in 10.0 mi SE 4.6 mph - N/A   Clear
4:35 AM 44.6 °F - 42.8 °F 93% 30.03 in 10.0 mi Calm Calm - N/A   Clear
4:55 AM 44.6 °F - 42.8 °F 93% 30.03 in 10.0 mi Calm Calm - N/A   Mostly Cloudy
5:15 AM 46.4 °F - 44.6 °F 93% 30.03 in 10.0 mi Calm Calm - N/A   Overcast
5:35 AM 46.4 °F 45.2 °F 44.6 °F 93% 30.03 in 10.0 mi SSE 3.5 mph - N/A   Mostly Cloudy
5:55 AM 46.4 °F 44.3 °F 42.8 °F 87% 30.02 in 10.0 mi SE 4.6 mph - N/A   Mostly Cloudy
6:17 AM 46.4 °F 42.9 °F 42.8 °F 87% 30.02 in 10.0 mi SSE 6.9 mph - N/A   Scattered Clouds
6:50 AM 44.6 °F 40.7 °F 42.8 °F 93% 30.02 in 10.0 mi SE 6.9 mph - N/A   Scattered Clouds
7:50 AM 50.0 °F - 46.4 °F 87% 30.01 in 10.0 mi SE 9.2 mph - N/A   Mostly Cloudy
8:50 AM 55.4 °F - 46.4 °F 72% 29.98 in 10.0 mi SE 13.8 mph - N/A   Mostly Cloudy
9:50 AM 59.0 °F - 48.2 °F 67% 29.98 in 10.0 mi SSE 17.3 mph - N/A   Mostly Cloudy
10:50 AM 64.4 °F - 50.0 °F 59% 29.96 in 10.0 mi SSE 17.3 mph 28.8 mph N/A   Mostly Cloudy
11:50 AM 66.2 °F - 51.8 °F 60% 29.94 in 10.0 mi South 19.6 mph 26.5 mph N/A   Mostly Cloudy
12:50 PM 68.0 °F - 55.4 °F 64% 29.89 in 7.0 mi South 23.0 mph 29.9 mph N/A   Overcast
1:50 PM 69.8 °F - 55.4 °F 60% 29.87 in 7.0 mi South 25.3 mph 31.1 mph N/A   Overcast
2:50 PM 73.4 °F - 57.2 °F 57% 29.84 in 7.0 mi South 25.3 mph 32.2 mph N/A   Scattered Clouds
3:50 PM 75.2 °F - 57.2 °F 53% 29.81 in 10.0 mi South 18.4 mph 29.9 mph N/A   Scattered Clouds
4:50 PM 73.4 °F - 59.0 °F 61% 29.79 in 10.0 mi SSW 17.3 mph 28.8 mph N/A   Scattered Clouds
5:50 PM 75.2 °F - 59.0 °F 57% 29.80 in 10.0 mi South 16.1 mph 20.7 mph N/A   Scattered Clouds
6:50 PM 73.4 °F - 59.0 °F 61% 29.79 in 10.0 mi SSE 11.5 mph - N/A   Scattered Clouds
7:50 PM 68.0 °F - 59.0 °F 73% 29.78 in 10.0 mi SE 6.9 mph - N/A   Mostly Cloudy
8:50 PM 66.2 °F - 57.2 °F 73% 29.79 in 10.0 mi East 10.4 mph - N/A Thunderstorm Thunderstorm
9:15 PM 66.2 °F - 55.4 °F 68% 29.78 in 10.0 mi SE 15.0 mph - N/A   Clear
9:35 PM 68.0 °F - 55.4 °F 64% 29.83 in 10.0 mi ESE 6.9 mph - N/A   Clear
9:55 PM 66.2 °F - 55.4 °F 68% 29.83 in 10.0 mi East 8.1 mph - N/A   Clear
10:15 PM 64.4 °F - 55.4 °F 73% 29.85 in 10.0 mi NE 5.8 mph - N/A   Mostly Cloudy
10:35 PM 53.6 °F - 50.0 °F 88% 29.92 in 10.0 mi West 16.1 mph 28.8 mph N/A Thunderstorm Overcast
10:55 PM 48.2 °F - 46.4 °F 93% 29.94 in 3.0 mi NNW 24.2 mph 32.2 mph 0.04 in Rain , Thunderstorm Heavy Thunderstorms and Rain
11:15 PM 46.4 °F 37.7 °F 44.6 °F 93% 29.94 in 10.0 mi North 26.5 mph 33.4 mph 0.01 in Rain , Thunderstorm Light Thunderstorms and Rain
11:35 PM 44.6 °F 35.5 °F 42.8 °F 93% 29.94 in 10.0 mi North 25.3 mph 29.9 mph 0.02 in Rain Light Rain
11:55 PM 44.6 °F 36.6 °F 42.8 °F 93% 29.94 in 10.0 mi North 19.6 mph 28.8 mph 0.02 in   Overcast